Previsão horária em Caxias do Sul

Hoje, 25 Julho, Domingo

Tempo Temperatura Precipitação Vento Pressão Humidade
00:00 +13°C° 0 mm 1 m/s 695 mmHg 71%
01:00 +12°C° 0 mm 1 m/s 695 mmHg 72%
02:00 +12°C° 0 mm 1 m/s 695 mmHg 72%
03:00 +12°C° 0 mm 1 m/s 695 mmHg 73%
04:00 +11°C° 0 mm 1 m/s 694 mmHg 74%
05:00 +11°C° 0 mm 1 m/s 694 mmHg 75%
06:00 +11°C° 0 mm 1 m/s 694 mmHg 75%
07:00 +12°C° 0 mm 2 m/s 694 mmHg 72%
08:00 +14°C° 0 mm 2 m/s 695 mmHg 68%
09:00 +15°C° 0 mm 2 m/s 695 mmHg 64%
10:00 +18°C° 0 mm 2 m/s 695 mmHg 54%
11:00 +21°C° 0 mm 2 m/s 695 mmHg 45%
12:00 +25°C° 0 mm 3 m/s 695 mmHg 36%
13:00 +25°C° 0 mm 3 m/s 695 mmHg 36%
14:00 +26°C° 0 mm 3 m/s 694 mmHg 36%
15:00 +27°C° 0 mm 2 m/s 694 mmHg 36%
16:00 +24°C° 0 mm 2 m/s 694 mmHg 46%
17:00 +21°C° 0 mm 2 m/s 693 mmHg 55%
18:00 +19°C° 0 mm 1 m/s 693 mmHg 65%
19:00 +18°C° 0 mm 1 m/s 693 mmHg 68%
20:00 +18°C° 0 mm 1 m/s 694 mmHg 71%
21:00 +16°C° 0 mm 1 m/s 694 mmHg 74%
22:00 +16°C° 0 mm 1 m/s 694 mmHg 72%
23:00 +17°C° 0 mm 2 m/s 694 mmHg 70%

Amanhã, 26 Julho, Segunda-feira

Tempo Temperatura Precipitação Vento Pressão Humidade
00:00 +17°C° 0 mm 2 m/s 694 mmHg 68%
01:00 +17°C° 0 mm 2 m/s 694 mmHg 69%
02:00 +16°C° 0 mm 2 m/s 694 mmHg 71%
03:00 +16°C° 0 mm 2 m/s 693 mmHg 72%
04:00 +15°C° 0 mm 1 m/s 693 mmHg 72%
05:00 +15°C° 0 mm 1 m/s 693 mmHg 72%
06:00 +15°C° 0 mm 1 m/s 693 mmHg 72%
07:00 +16°C° 0 mm 1 m/s 693 mmHg 69%
08:00 +18°C° 0 mm 1 m/s 693 mmHg 65%
09:00 +19°C° 0 mm 1 m/s 694 mmHg 61%
10:00 +20°C° 0 mm 2 m/s 694 mmHg 54%
11:00 +23°C° 0 mm 2 m/s 694 mmHg 46%
12:00 +26°C° 0 mm 2 m/s 694 mmHg 39%
13:00 +24°C° 0 mm 2 m/s 693 mmHg 46%
14:00 +23°C° 0 mm 2 m/s 693 mmHg 53%
15:00 +21°C° 0 mm 1 m/s 692 mmHg 60%
16:00 +20°C° 0 mm 1 m/s 692 mmHg 68%
17:00 +18°C° 0 mm 1 m/s 692 mmHg 77%
18:00 +16°C° 0 mm 1 m/s 692 mmHg 86%
19:00 +15°C° 0.1 mm 1 m/s 692 mmHg 88%
20:00 +15°C° 0.1 mm 1 m/s 692 mmHg 89%
21:00 +14°C° 0.1 mm 1 m/s 692 mmHg 91%
22:00 +14°C° 0.1 mm 1 m/s 692 mmHg 92%
23:00 +13°C° 0.1 mm 0 m/s 692 mmHg 93%

Depois de amanhã, 27 Julho, Terça-feira

Tempo Temperatura Precipitação Vento Pressão Humidade
00:00 +13°C° 0.1 mm 0 m/s 693 mmHg 94%
01:00 +13°C° 0.2 mm 0 m/s 692 mmHg 95%
02:00 +13°C° 0.2 mm 0 m/s 692 mmHg 96%
03:00 +12°C° 0.2 mm 0 m/s 692 mmHg 98%
04:00 +13°C° 1.5 mm 1 m/s 692 mmHg 98%
05:00 +13°C° 1.5 mm 1 m/s 692 mmHg 98%
06:00 +12°C° 1.5 mm 2 m/s 693 mmHg 98%
07:00 +10°C° 0.9 mm 2 m/s 693 mmHg 98%
08:00 +9°C° 0.9 mm 2 m/s 694 mmHg 98%
09:00 +9°C° 0.9 mm 1 m/s 694 mmHg 98%
10:00 +8°C° 0.2 mm 2 m/s 694 mmHg 96%
11:00 +8°C° 0.2 mm 2 m/s 695 mmHg 95%
12:00 +7°C° 0.2 mm 2 m/s 695 mmHg 93%
13:00 +8°C° 0 mm 2 m/s 694 mmHg 82%
14:00 +9°C° 0 mm 2 m/s 694 mmHg 71%
15:00 +9°C° 0 mm 2 m/s 694 mmHg 60%
16:00 +8°C° 0 mm 2 m/s 694 mmHg 63%
17:00 +7°C° 0 mm 2 m/s 694 mmHg 67%
18:00 +6°C° 0 mm 2 m/s 695 mmHg 70%
19:00 +5°C° 0 mm 2 m/s 695 mmHg 71%
20:00 +4°C° 0 mm 2 m/s 696 mmHg 72%
21:00 +3°C° 0 mm 2 m/s 696 mmHg 72%
22:00 +2°C° 0 mm 2 m/s 696 mmHg 73%
23:00 +2°C° 0 mm 1 m/s 696 mmHg 74%

28 Julho, Quarta-feira

Tempo Temperatura Precipitação Vento Pressão Humidade
00:00 +1°C° 0 mm 1 m/s 696 mmHg 75%
01:00 +1°C° 0 mm 1 m/s 696 mmHg 75%
02:00 +1°C° 0 mm 1 m/s 696 mmHg 76%
03:00 0°C° 0 mm 1 m/s 696 mmHg 76%
04:00 0°C° 0 mm 1 m/s 696 mmHg 78%
05:00 0°C° 0 mm 1 m/s 696 mmHg 79%
06:00 -1°C° 0 mm 1 m/s 696 mmHg 81%
07:00 0°C° 0 mm 1 m/s 696 mmHg 74%
08:00 +1°C° 0 mm 2 m/s 696 mmHg 67%
09:00 +2°C° 0 mm 2 m/s 697 mmHg 60%
10:00 +2°C° 0 mm 3 m/s 697 mmHg 58%
11:00 +4°C° 0 mm 3 m/s 697 mmHg 55%
12:00 +5°C° 0 mm 3 m/s 697 mmHg 52%
13:00 +5°C° 0 mm 3 m/s 697 mmHg 55%
14:00 +5°C° 0 mm 3 m/s 697 mmHg 58%
15:00 +5°C° 0 mm 3 m/s 696 mmHg 61%
16:00 +4°C° 0 mm 3 m/s 697 mmHg 67%
17:00 +3°C° 0 mm 3 m/s 697 mmHg 73%
18:00 +3°C° 0 mm 2 m/s 697 mmHg 79%
19:00 +1°C° 0.1 mm 3 m/s 698 mmHg 82%
20:00 +1°C° 0.1 mm 3 m/s 698 mmHg 84%
21:00 0°C° 0.1 mm 3 m/s 699 mmHg 87%
22:00 0°C° 0 mm 3 m/s 699 mmHg 87%
23:00 -1°C° 0 mm 3 m/s 699 mmHg 87%

29 Julho, Quinta-feira

Tempo Temperatura Precipitação Vento Pressão Humidade
00:00 -1°C° 0 mm 2 m/s 699 mmHg 87%
01:00 -1°C° 0 mm 2 m/s 699 mmHg 87%
02:00 -1°C° 0 mm 2 m/s 699 mmHg 87%
03:00 -2°C° 0 mm 2 m/s 699 mmHg 87%
04:00 -2°C° 0 mm 2 m/s 699 mmHg 88%
05:00 -2°C° 0 mm 2 m/s 700 mmHg 88%
06:00 0°C° 0 mm 1 m/s 700 mmHg 89%
07:00 0°C° 0 mm 1 m/s 700 mmHg 88%
08:00 +1°C° 0 mm 1 m/s 701 mmHg 86%
09:00 +1°C° 0 mm 1 m/s 701 mmHg 84%
10:00 +3°C° 0 mm 1 m/s 701 mmHg 77%
11:00 +5°C° 0 mm 1 m/s 702 mmHg 69%
12:00 +6°C° 0 mm 1 m/s 702 mmHg 61%
13:00 +7°C° 0 mm 1 m/s 702 mmHg 60%
14:00 +7°C° 0 mm 1 m/s 702 mmHg 59%
15:00 +7°C° 0 mm 1 m/s 702 mmHg 59%
16:00 +6°C° 0 mm 1 m/s 702 mmHg 66%
17:00 +5°C° 0 mm 1 m/s 702 mmHg 72%
18:00 +3°C° 0 mm 0 m/s 702 mmHg 79%
19:00 +2°C° 0 mm 0 m/s 702 mmHg 83%
20:00 +2°C° 0 mm 0 m/s 703 mmHg 87%
21:00 +1°C° 0 mm 0 m/s 703 mmHg 91%
22:00 0°C° 0 mm 0 m/s 703 mmHg 93%
23:00 0°C° 0 mm 0 m/s 703 mmHg 95%

30 Julho, Sexta-feira

Tempo Temperatura Precipitação Vento Pressão Humidade
00:00 -1°C° 0 mm 0 m/s 703 mmHg 97%
01:00 0°C° 0 mm 1 m/s 702 mmHg 97%
02:00 0°C° 0 mm 1 m/s 702 mmHg 97%
03:00 0°C° 0 mm 1 m/s 702 mmHg 97%
04:00 -1°C° 0 mm 1 m/s 702 mmHg 97%
05:00 -1°C° 0 mm 1 m/s 702 mmHg 97%
06:00 -1°C° 0 mm 1 m/s 702 mmHg 97%
07:00 +1°C° 0 mm 1 m/s 702 mmHg 88%
08:00 +3°C° 0 mm 1 m/s 703 mmHg 80%
09:00 +4°C° 0 mm 0 m/s 704 mmHg 71%
10:00 +7°C° 0 mm 1 m/s 704 mmHg 64%
11:00 +10°C° 0 mm 1 m/s 704 mmHg 57%
12:00 +12°C° 0 mm 2 m/s 704 mmHg 49%
13:00 +13°C° 0 mm 2 m/s 703 mmHg 48%
14:00 +14°C° 0 mm 2 m/s 703 mmHg 46%
15:00 +14°C° 0 mm 2 m/s 702 mmHg 45%
16:00 +12°C° 0 mm 2 m/s 702 mmHg 56%
17:00 +9°C° 0 mm 2 m/s 702 mmHg 67%
18:00 +8°C° 0 mm 1 m/s 702 mmHg 77%
19:00 +7°C° 0 mm 1 m/s 702 mmHg 82%
20:00 +5°C° 0 mm 2 m/s 702 mmHg 87%
21:00 +4°C° 0 mm 2 m/s 702 mmHg 92%
22:00 +4°C° 0 mm 2 m/s 702 mmHg 92%
23:00 +3°C° 0 mm 2 m/s 702 mmHg 93%
Mostrar mais

Necessitamos do seu Consentimento

A Meteoprog e os seus Fornecedores de Serviços podem armazenar e aceder a dados pessoais como cookies, identificadores do dispositivo ou outras tecnologias semelhantes existentes no seu dispositivo e processar estes dados para personalizar conteúdos e anúncios, assim como funcionalidades nas redes sociais e análise de tráfego.

  • Armazenar e/ou aceder a informações no seu dispositivo

    Os cookies, identificadores do dispositivo ou outras informações podem ser armazenados ou acedidos no seu dispositivo, para os fins acima indicados.

  • Anúncios e conteúdos personalizados, medição de anúncios e conteúdos, dados sobre o público-alvo e desenvolvimento de produtos

    Os anúncios e os conteúdos podem ser personalizados com base num perfil. Podem ser adicionados dados adicionais para uma maior personalização dos anúncios e dos conteúdos. A eficácia dos anúncios e dos conteúdos pode ser medida. Podem ser obtidas informações sobre o público que visualizou os anúncios e os conteúdos. Estes dados podem ser usados para desenvolver ou melhorar sistemas, softwares ou a experiência do utilizador.

Ao clicar em "Eu concordo”, permitirá o uso de cookies, identificadores do dispositivo e web beacons mencionados ou outras tecnologias semelhantes. As configurações do navegador do seu dispositivo podem ser alteradas.

Para certos fins, podem ser invocados interesses legítimos ao invés de consentimento. Pode ler mais informação sobre este assunto na nossa Política de Privacidade e Cookies.